Regional Weather Roundup
Issued by NWS

Home | Current Version | Previous Version | Graphics & Text | Print | Product List | Glossary On
Versions: 1 2 3 4 5 6 7 8 9 10 11 12 13 14 15 16 17 18 19 20 21 22 23 24 25 26 27 28 29 30 31 32 33 34 35 36 37 38 39 40 41 42 43 44 45 46 47 48 49 50
000
ASUS44 KMEG 290700
RWRTN
TENNESSEE HOURLY STATE WEATHER ROUNDUP
NATIONAL WEATHER SERVICE MEMPHIS TN
200 AM CDT SAT APR 29 2017

TNZ002-004-019-021-049-052-054-088>092-290800-
WEST TENNESSEE

CITY           SKY/WX    TMP DP  RH WIND       PRES   REMARKS
MEMPHIS INTL   PTCLDY    76  70  82 S20G29    29.81R
NWS MEMPHIS      N/A     76 N/A N/A MISG        N/A
JACKSON        PTCLDY    77  69  76 S13G21    29.85R
DYERSBURG      CLOUDY    77  69  76 S9        29.82R
$$

TNZ008-025-027-028-033-062-065-066-290800-
NORTH MIDDLE TENNESSEE

CITY           SKY/WX    TMP DP  RH WIND       PRES   REMARKS
NASHVILLE      PTCLDY    77  67  71 S16       29.93R
CLARKSVILLE    CLOUDY    76  66  71 S13       29.89R
SMYRNA         MOCLDY    76  68  76 S8        29.95R
CROSSVILLE     CLEAR     71  64  78 VRB7G18   30.06R
$$

TNZ061-075-076-078-094-096-097-290800-
SOUTH MIDDLE TENNESSEE

CITY           SKY/WX    TMP DP  RH WIND       PRES   REMARKS
WINCHESTER     CLEAR     73  66  78 S13       29.98R
COLUMBIA       MOCLDY    75  75 100 S12       29.91R
SHELBYVILLE    PTCLDY    75  70  83 S13       29.97R
$$

TNZ017-018-042-046-047-290800-
NORTHEAST TENNESSEE

CITY           SKY/WX    TMP DP  RH WIND       PRES   REMARKS
TRI CITIES     CLEAR     61  59  93 N3        30.07S
$$

TNZ012-013-036-069-073-074-290800-
CENTRAL EAST TENNESSEE

CITY           SKY/WX    TMP DP  RH WIND       PRES   REMARKS
KNOXVILLE      CLEAR     71  62  73 W3        30.01R
OAK RIDGE      CLEAR     73  64  73 CALM      30.04R
GATLINBURG     CLEAR     63  63 100 CALM      30.01S
$$

TNZ083-085-099-290800-
SOUTHEAST TENNESSEE

CITY           SKY/WX    TMP DP  RH WIND       PRES   REMARKS
CHATTANOOGA    CLEAR     69  65  86 CALM      30.01F
$$

SKY/WX REPORTED AS FAIR MEANS FEW OR NO CLOUDS BELOW
12 THOUSAND FEET.





USA.gov is the U.S. government's official web portal to all federal, state and local government web resources and services.